Location: Trois-Rivi�res
(46.3500°N, 72.5500°W)
Time: 03:13:44
(UTC-04:00)

Cosmos 1544 - Visible Passes

Search period start: 29 August 2016 00:00
Search period end: 08 September 2016 00:00
Orbit: 481 x 501 km, 82.5° (Epoch: 28 August)

Date Brightness Start Highest point End Pass type
(mag) Time Alt. Az. Time Alt. Az. Time Alt. Az.
29 Aug 6.4 00:11:05 11° NNE 00:11:05 11° NNE 00:11:16 10° NNE visible
02 Sep 6.6 00:15:48 10° N 00:15:48 10° N 00:15:51 10° N visible
02 Sep 6.5 23:53:20 10° N 23:53:20 10° N 23:53:22 10° N visible
